Location: Asheville, NC
(35.6000°N, 82.5500°W)
Time: 06:05:55
(UTC-04:00)

ISS - Pass Details

Date: 15 October 2017
Orbit: 401 x 408 km, 51.6° (Epoch: 22 October)

Event Time Altitude Azimuth Distance (km) Brightness Sun altitude
Rises 20:10:10 0° 308° (NW) 2,319 0.9 -16.2°
Reaches altitude 10° 20:12:16 10° 304° (WNW) 1,458 -0.2 -16.6°
Maximum altitude 20:15:28 56° 225° (SW) 487 -3.3 -17.3°
Enters shadow 20:16:57 28° 158° (SSE) 797 -2.6 -17.6°
